Meteo Giornale » Osservazioni meteo Stati Uniti (USA) » New York City Central Park

ore: 04:51 - Osservazioni Meteo New York City Central Park
Lat. 40° 47' N Lon. 73° 58' W Alt. 47 metri s.l.m.

foschia America/New_York

21 °C

Foschia

Temp. 24 Ore

0 °C

24 °C

Nord

0 Km/h

Dew point 19 °C

Umidità 88 %

Visibilità  10 Km

Il sole sorge alle ore 05:22

Il sole tramonta alle ore 20:31

Data e Ora Cielo e Fenomeni T °C DP °C Um. % Pres. hPa Vis. km Vento km/h
Oggi h: 04:51 foschia Foschia 21 19 88 1015 10 N 0
Oggi h: 04:36 foschia Foschia 21 19 88 1015 10 N 0
Oggi h: 03:51 foschia Foschia 21 19 88 1015 10 N 0
Oggi h: 03:27 coperto Coperto 21 19 88 1015 13 O/SO 7.4
Oggi h: 03:01 molto_nuvoloso Molto Nuvoloso 21 18 82 1015 14 N 0
Oggi h: 02:51 molto_nuvoloso Molto Nuvoloso 21 18 82 1015 14 N 0
Oggi h: 02:31 molto_nuvoloso Molto Nuvoloso 21 18 82 1015 14 N 0
Oggi h: 01:51 nuvoloso Nuvoloso 21 18 82 1016 10 N 0
Oggi h: 00:51 coperto Coperto 22 18 78 1016 10 N 0
Ieri h: 23:51 sereno Sereno 21 18 82 1016 10 N 0
Ieri h: 22:51 nuvoloso Nuvoloso 22 17 73 1016 10 N 0
Ieri h: 21:51 poco_nuvoloso Poco Nuvoloso 22 17 73 1016 10 N 0
Ieri h: 20:51 coperto_pioggia Pioggia Debole 22 17 73 1016 10 N 5.5
Ieri h: 19:51 poco_nuvoloso Poco Nuvoloso 23 18 73 1016 10 N 0
Ieri h: 18:51 coperto Coperto 24 18 69 1016 10 N 0
Ieri h: 18:43 molto_nuvoloso Molto Nuvoloso 24 18 69 1016 10 N 0
Ieri h: 18:14 coperto Coperto 24 19 73 1015 10 N 0
Ieri h: 17:51 nuvoloso Nuvoloso 24 19 73 1015 10 N 0
Ieri h: 16:51 coperto Coperto 23 18 73 1016 10 N 0
Ieri h: 16:48 coperto Coperto 23 19 78 1016 10 NE 7.4
Ieri h: 16:12 coperto Coperto 22 19 83 1017 10 N 0
Ieri h: 15:51 coperto Coperto 23 19 78 1016 11 N 5.5
Ieri h: 14:51 coperto Coperto 23 18 73 1017 10 N 0
Ieri h: 14:49 coperto Coperto 23 19 78 1017 10 N 0
Ieri h: 14:41 coperto_pioggia Pioggia Debole 23 18 73 1017 10 N 0
Ieri h: 13:51 coperto Coperto 23 18 73 1016 10 N 0
Ieri h: 13:33 coperto Coperto 23 18 73 1016 10 N 0
Ieri h: 12:51 coperto Coperto 24 17 64 1016 10 N 5.5
Ieri h: 11:33 coperto Coperto 23 17 68 1016 10 N 0
Ieri h: 10:51 nuvoloso Nuvoloso 0 0 71 0 10 N 0
Ieri h: 09:51 coperto Coperto 22 18 78 1016 10 N 0
Ieri h: 08:51 coperto Coperto 22 18 78 1016 10 N 0
Ieri h: 08:08 coperto Coperto 21 18 82 1015 10 N 5.5
Ieri h: 07:51 coperto Coperto 21 18 82 1014 10 N 5.5
Ieri h: 07:38 molto_nuvoloso Molto Nuvoloso 22 18 78 1014 10 N/NE 16.7
Ieri h: 06:51 coperto Coperto 22 18 78 1015 10 N 9.3
Ieri h: 06:44 molto_nuvoloso Molto Nuvoloso 22 18 78 1015 10 N 9.3
Ieri h: 05:51 molto_nuvoloso Molto Nuvoloso 21 18 82 1014 10 N 0